Location: La Savane
(18.0962°N, 63.0646°W)
Time: 09:10:24
(UTC+00:00)

Cosmos 2227 Rocket - Pass Details

Date: 29 October 2020
Orbit: 839 x 845 km, 71.0° (Epoch: 26 November)

Event Time Altitude Azimuth Distance (km) Brightness Sun altitude
Rises 22:05:19 0° 4° (N) 3,393 5.2 -6.4°
Reaches altitude 10° 22:08:22 10° 20° (NNE) 2,458 4.3 -7.1°
Maximum altitude 22:12:34 21° 68° (ENE) 1,791 3.3 -8.1°
Drops below altitude 10° 22:16:46 10° 117° (ESE) 2,458 4.2 -9.1°
Sets 22:19:47 0° 132° (SE) 3,392 5.0 -9.8°
